Regional Weather Roundup
Issued by NWS San Angelo, TX

Home | Current Version | Previous Version | Text Only | Print | Product List | Glossary On
Versions: 1 2 3 4 5 6 7 8 9 10 11 12 13 14 15 16 17 18 19 20 21 22 23 24 25 26 27 28 29 30 31 32 33 34 35 36 37 38 39 40 41 42 43 44 45 46 47 48 49 50
000
ASUS44 KSJT 310458
RWRSJT
WEST CENTRAL TEXAS REGIONAL WEATHER ROUNDUP
NATIONAL WEATHER SERVICE SAN ANGELO TX
1200 AM CDT SAT JUL 31 2021

NOTE: "FAIR" INDICATES FEW OR NO CLOUDS BELOW 12,000 FEET WITH NO
SIGNIFICANT WEATHER AND/OR OBSTRUCTIONS TO VISIBILITY.

TXZ049-054-064>066-071>073-076>078-098-099-113-114-127-128-139-140-
154-155-168>170-310600-
...LOCATIONS ACROSS WEST CENTRAL TEXAS...

CITY           SKY/WX    TMP DP  RH WIND       PRES   REMARKS
SAN ANGELO     CLEAR     79  61  53 SE6       30.09R
ABILENE        CLEAR     82  65  56 SE8       30.09R
DYESS AFB      NOT AVBL
JUNCTION       CLEAR     82  65  56 CALM      30.10S
SWEETWATER     NOT AVBL
BROWNWOOD      NOT AVBL
COLEMAN        NOT AVBL
SAN SABA       NOT AVBL
SONORA         NOT AVBL
OZONA          NOT AVBL
BRADY          NOT AVBL
$$

TXZ001-004-007-008-010-012-014-016-OKZ002-310600-
TEXAS PANHANDLE/OKLAHOMA PANHANDLE

CITY           SKY/WX    TMP DP  RH WIND       PRES   REMARKS
AMARILLO       CLEAR     76  61  59 S12       30.17R
BORGER         CLEAR     85  62  46 S13G23    30.13R
CANADIAN       NOT AVBL
DALHART        CLEAR     77  60  55 S14       30.17S
DUMAS          NOT AVBL
GUYMON         NOT AVBL
HEREFORD       NOT AVBL
PAMPA          NOT AVBL
PERRYTON       NOT AVBL
$$

TXZ035-026-045-048-310600-
SOUTHERN PANHANDLE/SOUTH PLAINS/ROLLING PLAINS

CITY           SKY/WX    TMP DP  RH WIND       PRES   REMARKS
LUBBOCK        PTCLDY    77  62  59 S6        30.16S
SNYDER         CLEAR     80  65  60 E6        30.12
CHILDRESS      CLEAR     80  65  59 S7        30.08F
SEMINOLE       NOT AVBL
$$

TXZ060>062-310600-
PERMIAN BASIN

CITY           SKY/WX    TMP DP  RH WIND       PRES   REMARKS
MIDLAND        CLEAR     80  64  58 SE7       30.13S
ODESSA         CLEAR     83  61  47 SE8       30.14S
WINK           CLEAR     81  61  50 E6        30.10S
$$

TXZ075-082-271-274-277-419-310600-
FAR WEST/SOUTHWEST MOUNTAINS/TRANS PECOS

CITY           SKY/WX    TMP DP  RH WIND       PRES   REMARKS
ALPINE         NOT AVBL
DRYDEN           N/A     83  63  50 E7        30.11S
EL PASO        PTCLDY    81  53  37 E7        30.18R
FORT STOCKTON  CLEAR     79  58  48 S8        30.14S
GUADALUPE PASS PTCLDY    74  55  51 NE20      30.30F
MARFA          NOT AVBL
PECOS          NOT AVBL
$$

TXZ118-119-310600-
DALLAS/FORT WORTH METROPLEX

CITY           SKY/WX    TMP DP  RH WIND       PRES   REMARKS
DFW AIRPORT    PTCLDY    87  74  64 S9        30.02S
FTW MEACHAM    CLEAR     84  72  67 SE7       30.04R
DAL-EXECUTIVE  CLEAR     85  73  67 S7        30.04R
GRAND PRAIRIE  NOT AVBL
ADDISON        NOT AVBL
MESQUITE       NOT AVBL
LANCASTER      NOT AVBL
$$

TXZ092-093-103-131-134-310600-
NORTH CENTRAL TEXAS

CITY           SKY/WX    TMP DP  RH WIND       PRES   REMARKS
SHRMAN/DENISON NOT AVBL
GAINESVILLE    NOT AVBL
BRIDGEPORT     NOT AVBL
DENTON         CLEAR     86  74  67 SE6       30.04R
WAXAHACHIE     NOT AVBL
GRANBURY       NOT AVBL
$$

TXZ085-086-115-141-310600-
WESTERN NORTH TEXAS

CITY           SKY/WX    TMP DP  RH WIND       PRES   REMARKS
WICHITA FALLS  CLEAR     80  70  71 S7        30.03S
VERNON         NOT AVBL
BRECKENRIDGE   NOT AVBL
COMANCHE       NOT AVBL
$$

TXZ145-158-159-173-191-192-194-205-207-220-223-310600-
CENTRAL AND SOUTH CENTRAL TEXAS

CITY           SKY/WX    TMP DP  RH WIND       PRES   REMARKS
AUSTIN/BERGSTM PTCLDY    79  73  82 S5        30.05R
WACO           CLEAR     86  74  67 S9        30.04R
HILLSBORO      NOT AVBL
TEMPLE         CLEAR     81  72  74 E7        30.06R
KILLEEN-GRAY   NOT AVBL
FORT HOOD      NOT AVBL
GEORGETOWN     NOT AVBL
LAGO VISTA     NOT AVBL
SAN MARCOS     NOT AVBL
NEW BRAUNFELS  CLEAR     79  75  87 S6        30.04R
RANDOLPH AFB   NOT AVBL
SAN ANTONIO    PTCLDY    83  75  77 S10       30.06R
STINSON        CLEAR     83  78  85 SE7       30.03R
PLEASANTON     NOT AVBL
LA GRANGE      NOT AVBL
GIDDINGS       NOT AVBL
$$

TXZ095-096-136-137-148-152-310600-
EAST TEXAS

CITY           SKY/WX    TMP DP  RH WIND       PRES   REMARKS
PARIS          NOT AVBL
CLARKSVILLE    NOT AVBL
TYLER          CLEAR     83  74  74 CALM      30.04S
LONGVIEW       CLEAR     79  75  87 CALM      30.03S
PALESTINE      NOT AVBL
NACOGDOCHES    NOT AVBL
$$

TXZ171-183-184-186-188-203-204-310600-
TEXAS HILL COUNTRY AND EDWARDS PLATEAU

CITY           SKY/WX    TMP DP  RH WIND       PRES   REMARKS
LLANO          NOT AVBL
HORSESHOE BAY  NOT AVBL
KERRVILLE      NOT AVBL
FREDERICKSBRG  NOT AVBL
ROCKSPRINGS    NOT AVBL
HONDO          CLEAR     83  73  72 SE7       30.05F
UVALDE         NOT AVBL
DEL RIO        CLEAR     89  67  47 E6        30.03S
$$

TXZ163-177-195>197-199-213-226-237-310600-
SOUTHEAST TEXAS

CITY           SKY/WX    TMP DP  RH WIND       PRES   REMARKS
COLLEGE STN    PTCLDY    81  73  76 S5        30.05R
CALDWELL       NOT AVBL
CROCKETT       NOT AVBL
BRENHAM        NOT AVBL
HUNTSVILLE     PTCLDY    83  72  69 S6        30.05S
CONROE         PTCLDY    78  74  87 CALM      30.06S
HOUSTON BUSH   MOCLDY    80  74  81 S3        30.04F
HOUSTON HOBBY  MOCLDY    82  75  79 S3        30.04S
PERLAND        PTCLDY    78  76  93 CALM      30.06S
WHARTON        NOT AVBL
$$

TXZ215-216-236-237-438-310600-
THE UPPER TEXAS COAST

CITY           SKY/WX    TMP DP  RH WIND       PRES   REMARKS
ORANGE         NOT AVBL
PORT ARTHUR    CLEAR     78  78 100 MISG      30.04R
GALVESTON      CLEAR     86  76  71 S9        30.05S
ANGLETON       CLEAR     79  76  90 CALM      30.04S
BAY CITY       NOT AVBL
$$

TXZ229-232-234-239-242-243-245-247-249-250-
253-255-257-343-347-443-310600-
TEXAS COASTAL BEND, RIO GRANDE PLAINS DEEP SOUTH TEXAS

CITY           SKY/WX    TMP DP  RH WIND       PRES   REMARKS
VICTORIA       CLEAR     80  75  84 SE3       30.04S
BEEVILLE       FAIR      81  81 100 S3        30.03S
ROCKPORT       PTCLDY    85  78  80 S9        30.02S
PORT ARANSAS   NOT AVBL
PORT LAVACA    NOT AVBL
CORPUS CHRISTI PTCLDY    80  79  96 S7        30.02S
KINGSVILLE NAS NOT AVBL
COTULLA        NOT AVBL
LAREDO         NOT AVBL
BROWNSVILLE    CLEAR     79  75  87 S3        30.05S
PORT ISABEL    CLEAR     81  76  84 S5        30.05S
HEBBRONVILLE   NOT AVBL
MCALLEN        CLEAR     81  74  79 SE8       30.05S
WESLACO        NOT AVBL


USA.gov is the U.S. government's official web portal to all federal, state and local government web resources and services.